Starlink 32813

operational
NORAD ID: 62869 Int'l Des: 2025-022 Owner: SPXS Country: US Constellation: starlink
LEOCIRCULAR

关于 Starlink 32813

正在加载描述...

实时位置

正在加载3D地球...

即将过境

高度历史

Altitude vs Time

uPlot chart will show altitude changes over time

两行轨道根数

1 62869U 25022R 25352.61057565 .00022527 00000-0 77016-3 0 9996
2 62869 53.1588 146.4288 0001531 87.2452 272.8724 15.30210539 49480
Epoch: Dec 18, 2025 • Age: 15 hours

当前状态

高度 478.4 km
速度 7.63 km/s
星下点 -11.12°S, 159.81°E
发射日期 Feb 2, 2025
运行时间 0.8 years
类型 internet

技术详情

分类 Payload
质量 730.00 kg
干质量 700.00 kg
总质量 730.00 kg
长度 0.30 m
直径 4.10 m
跨度 29.00 m
形状 Box + pan
制造商 SPXS
平台类型 Starlink V2M
阶段状态 In Orbit
所有者/国家 SPXS/US

大型星座

Loading constellations...